NOAA 19 (33591 NORAD) Tracking and Keplerian Element Data

This shows tracking and keplerian element data for the satellite.

Feedback or suggestion? Click here.




ElementValue
Catalog33591
NameNOAA 19
Epoch Orbit86919
Epoch Day354.16928521
Epoch Year2025
RAAN59.7449
Inclination98.9758
Eccentricity0.0013956
Argument of Perigee173.0255
Mean Anonmoly187.1114
Mean Motion14.13437601
Decay Rate3.7E-07
L11 33591U 09005A 25354.16928521 .00000037 00000+0 43504-4 0 9997
L22 33591 98.9758 59.7449 0013956 173.0255 187.1114 14.13437601869190



Live tracking and technical data element details for NOAA 19 (NORAD 33591). NOAA 19 can be tracked NOW for your location showing map with azimuth and elevation plus other details from your city location.







IsCatalogInMostPopularTable: catalog: 33591, numindb: 3361
Update: records affected: 1



GetName: 33591 NOAA 19

Hit Count: updated at: Sat, 14 Mar 2026 03:09:34 GMT